Date String (YYYY-MM-DD hh:mm:ss) UTC,Instrument flags,Ambient pressure (hPa),Sample flow (lpm),Bypass flow (lpm),Sample temperature (°C),Ambient temperature (°C),ASC tube jacket temperature (°C),LED temperature (°C),Box temperature (°C),Sample RH (%),Span deviation,Mass concentration (μg/m³),Mass concentration (μg/m³),Mass concentration (μg/m³)
DateTimeUTC,F1_M11,P_M11,Q1_M11,Q2_M11,T1_M11,T2_M11,T3_M11,T4_M11,T5_M11,U1_M11,ZSPAN_M11,X0_M11,X2_M11,X1_M11
2023-02-20 16:00:00,,0815.6,5.00,0.00,21.6,19.8,00.0,30.6,23.1,11.1,0000.0,0009.11,0002.21,0000.97
2023-02-20 16:01:00,,0815.2,5.00,0.00,21.5,19.7,00.0,30.6,23.0,11.2,0000.0,0009.72,0002.30,0000.97
2023-02-20 16:02:00,,0815.2,4.99,0.00,21.5,19.5,00.0,30.6,23.0,11.2,0000.0,0009.25,0002.30,0000.98
2023-02-20 16:03:00,,0815.3,5.00,0.00,21.4,19.4,00.0,30.6,22.9,11.2,0000.0,0009.33,0002.31,0000.98
2023-02-20 16:04:00,,0815.7,5.00,0.00,21.4,19.8,00.0,30.5,22.9,11.3,0000.0,0009.05,0002.22,0000.97
2023-02-20 16:05:00,,0815.8,5.02,0.00,21.5,21.2,00.0,30.4,23.3,11.2,0000.0,0008.72,0002.14,0000.95
2023-02-20 16:06:00,,0815.4,5.02,0.00,21.7,22.5,00.0,30.4,23.7,11.1,0000.0,0007.99,0002.04,0000.94
2023-02-20 16:07:00,,0815.5,5.02,0.00,21.8,22.4,00.0,30.5,23.7,11.0,0000.0,0007.32,0001.97,0000.91
2023-02-20 16:08:00,,0815.9,4.98,0.00,21.7,21.6,00.0,30.5,23.5,11.1,0000.0,0006.79,0001.95,0000.90
2023-02-20 16:09:00,,0815.6,4.99,0.00,21.7,21.0,00.0,30.6,23.3,11.0,0000.0,0007.44,0001.95,0000.89
2023-02-20 16:10:00,,0815.7,5.01,0.00,21.6,20.6,00.0,30.6,23.2,11.1,0000.0,0007.42,0001.99,0000.88
2023-02-20 16:11:00,,0815.9,5.00,0.00,21.6,20.2,00.0,30.6,23.2,11.1,0000.0,0006.86,0001.94,0000.88
2023-02-20 16:12:00,,0815.6,4.99,0.00,21.6,20.0,00.0,30.6,23.1,11.1,0000.0,0005.63,0001.89,0000.87
2023-02-20 16:13:00,,0815.5,5.00,0.00,21.5,19.8,00.0,30.6,23.0,11.2,0000.0,0005.48,0001.83,0000.85
2023-02-20 16:14:00,,0815.7,4.96,0.00,21.5,19.6,00.0,30.6,22.9,11.1,0000.0,0006.75,0001.80,0000.84
2023-02-20 16:15:00,,0815.7,5.01,0.00,21.4,19.4,00.0,30.5,22.8,11.2,0000.0,0007.07,0001.77,0000.83
2023-02-20 16:16:00,,0815.9,5.01,0.00,21.3,19.3,00.0,30.5,22.7,11.2,0000.0,0007.57,0001.82,0000.84
2023-02-20 16:17:00,,0815.9,5.00,0.00,21.3,19.8,00.0,30.4,22.8,11.2,0000.0,0007.71,0001.86,0000.85
2023-02-20 16:18:00,,0816.0,5.00,0.00,21.4,21.4,00.0,30.4,23.2,11.2,0000.0,0008.47,0001.83,0000.85
2023-02-20 16:19:00,,0816.0,4.98,0.00,21.6,22.6,00.0,30.4,23.6,11.0,0000.0,0008.69,0001.81,0000.86
2023-02-20 16:20:00,,0815.9,4.96,0.00,21.7,22.3,00.0,30.5,23.6,11.0,0000.0,0008.20,0001.76,0000.86
2023-02-20 16:21:00,,0815.5,5.02,0.00,21.7,21.6,00.0,30.5,23.5,11.1,0000.0,0008.13,0001.70,0000.86
2023-02-20 16:22:00,,0815.7,5.01,0.00,21.7,21.1,00.0,30.5,23.4,11.1,0000.0,0008.24,0001.66,0000.86
2023-02-20 16:23:00,,0815.7,4.98,0.00,21.6,20.6,00.0,30.6,23.2,11.2,0000.0,0008.64,0001.61,0000.85
2023-02-20 16:24:00,,0815.4,5.00,0.00,21.6,20.3,00.0,30.6,23.1,11.1,0000.0,0008.66,0001.59,0000.86
2023-02-20 16:25:00,,0815.2,5.00,0.00,21.6,20.1,00.0,30.6,23.1,11.1,0000.0,0008.32,0001.60,0000.86
2023-02-20 16:26:00,,0815.7,5.00,0.00,21.5,20.0,00.0,30.6,23.1,11.2,0000.0,0008.41,0001.62,0000.85
2023-02-20 16:27:00,,0815.2,5.01,0.00,21.5,19.8,00.0,30.5,23.0,11.1,0000.0,0008.50,0001.65,0000.84
2023-02-20 16:28:00,,0814.8,5.01,0.00,21.4,19.7,00.0,30.5,22.9,11.2,0000.0,0029.85,0001.98,0000.87
2023-02-20 16:29:00,,0815.7,5.02,0.00,21.4,19.6,00.0,30.5,22.9,11.3,0000.0,0054.87,0002.57,0000.92
2023-02-20 16:30:00,,0815.7,5.01,0.00,21.3,19.4,00.0,30.5,22.8,11.2,0000.0,0054.69,0002.59,0000.92
2023-02-20 16:31:00,,0815.4,4.99,0.00,21.3,19.2,00.0,30.5,22.6,11.3,0000.0,0054.41,0002.63,0000.91
2023-02-20 16:32:00,,0815.0,5.01,0.00,21.2,19.9,00.0,30.4,22.8,11.4,0000.0,0054.31,0002.63,0000.89
2023-02-20 16:33:00,,0815.1,5.01,0.00,21.4,21.3,00.0,30.3,23.2,11.3,0000.0,0054.57,0002.64,0000.88
2023-02-20 16:34:00,,0816.1,4.99,0.00,21.5,22.4,00.0,30.3,23.6,11.1,0000.0,0055.03,0002.63,0000.86
2023-02-20 16:35:00,,0816.1,4.95,0.00,21.7,22.7,00.0,30.3,23.7,11.1,0000.0,0055.23,0002.66,0000.84
2023-02-20 16:36:00,,0816.3,4.99,0.00,21.7,22.0,00.0,30.4,23.6,11.1,0000.0,0056.17,0002.63,0000.83
2023-02-20 16:37:00,,0815.9,4.98,0.00,21.7,21.4,00.0,30.5,23.5,11.0,0000.0,0056.75,0002.62,0000.83
2023-02-20 16:38:00,,0816.0,5.00,0.00,21.7,21.0,00.0,30.5,23.4,11.2,0000.0,0056.60,0002.65,0000.84
2023-02-20 16:39:00,,0816.2,4.98,0.00,21.7,20.6,00.0,30.6,23.3,11.1,0000.0,0055.98,0002.59,0000.84
2023-02-20 16:40:00,,0815.9,5.00,0.00,21.6,20.4,00.0,30.6,23.3,11.2,0000.0,0052.90,0002.57,0000.84
2023-02-20 16:41:00,,0815.8,5.00,0.00,21.6,20.2,00.0,30.6,23.2,11.2,0000.0,0010.18,0001.72,0000.78
2023-02-20 16:42:00,,0815.7,4.99,0.00,21.6,20.0,00.0,30.6,23.1,11.3,0000.0,0008.78,0001.66,0000.78
2023-02-20 16:43:00,,0815.8,5.00,0.00,21.5,20.0,00.0,30.6,23.1,11.2,0000.0,0009.23,0001.90,0000.81
2023-02-20 16:44:00,,0815.7,5.00,0.00,21.5,19.8,00.0,30.5,23.0,11.2,0000.0,0009.23,0001.93,0000.83
2023-02-20 16:45:00,,0815.9,4.98,0.00,21.5,19.7,00.0,30.5,23.0,11.3,0000.0,0008.87,0002.04,0000.85
2023-02-20 16:46:00,,0816.0,4.99,0.00,21.4,19.5,00.0,30.5,22.9,11.3,0000.0,0008.37,0002.05,0000.87
2023-02-20 16:47:00,,0815.7,5.01,0.00,21.3,19.4,00.0,30.5,22.8,11.4,0000.0,0007.32,0002.13,0000.89
2023-02-20 16:48:00,,0815.6,5.00,0.00,21.3,19.3,00.0,30.5,22.8,11.4,0000.0,0005.88,0002.16,0000.89
2023-02-20 16:49:00,,0815.7,4.96,0.00,21.3,19.3,00.0,30.4,22.7,11.4,0000.0,0005.46,0002.11,0000.90
2023-02-20 16:50:00,,0815.7,5.00,0.00,21.2,19.4,00.0,30.4,22.8,11.5,0000.0,0007.24,0002.18,0000.91
2023-02-20 16:51:00,,0815.9,4.99,0.00,21.3,20.7,00.0,30.3,23.1,11.4,0000.0,0008.34,0002.29,0000.92
2023-02-20 16:52:00,,0815.7,4.98,0.00,21.5,22.1,00.0,30.3,23.5,11.3,0000.0,0008.72,0002.40,0000.92
2023-02-20 16:53:00,,0815.9,5.04,0.00,21.6,22.8,00.0,30.3,23.7,11.1,0000.0,0009.06,0002.37,0000.91
2023-02-20 16:54:00,,0815.8,5.00,0.00,21.7,22.2,00.0,30.4,23.7,11.2,0000.0,0008.60,0002.12,0000.90
2023-02-20 16:55:00,,0815.8,4.99,0.00,21.7,21.6,00.0,30.5,23.5,11.1,0000.0,0008.62,0002.15,0000.90
2023-02-20 16:56:00,,0816.1,5.00,0.00,21.7,21.1,00.0,30.5,23.4,11.0,0000.0,0008.60,0002.19,0000.89
2023-02-20 16:57:00,,0816.1,5.00,0.00,21.6,20.7,00.0,30.5,23.3,11.0,0000.0,0008.97,0002.17,0000.89
2023-02-20 16:58:00,,0815.9,5.01,0.00,21.6,20.3,00.0,30.5,23.2,11.1,0000.0,0009.31,0002.13,0000.88
2023-02-20 16:59:00,,0815.9,5.01,0.00,21.6,20.1,00.0,30.5,23.1,11.1,0000.0,0009.37,0002.16,0000.88
